Change the Weather History Date:

Friday, December 30, 2011

  Actual Average Record
Temperature  
Mean Temperature 32 °F 23 °F  
Max Temperature 43 °F 32 °F 46 °F (2003)
Min Temperature 21 °F 14 °F -2 °F (1998)
Degree Days  
Heating Degree Days 33 42  
Month to date heating degree days 1118  
Since 1 July heating degree days 2731  
Cooling Degree Days 0 0  
Month to date cooling degree days 0  
Year to date cooling degree days 313  
Moisture  
Dew Point 24 °F    
Average Humidity 72    
Maximum Humidity 85    
Minimum Humidity 58    
Precipitation  
Precipitation 0.00 in 0.08 in 0.15 in (2003)
Month to date precipitation 2.71  
Year to date precipitation 40.62  
Sea Level Pressure  
Sea Level Pressure 30.00 in    
Wind  
Wind Speed 2 mph (North)    
Max Wind Speed 7 mph    
Max Gust Speed -    
Visibility 10 miles    
Events      
T = Trace of Precipitation, MM = Missing Value Source: NWS Daily Summary

Daily Weather History Graph

Daily Weather History Graph

Search for Another Location

Airport or City:

Trip Planner

Search our weather history database for the weather conditions in past years. The results will help you decide how hot, cold, wet, or windy it might be!

Date:

Astronomy

Dec. 30, 2011 Rise Set
Actual Time 7:23 AM EST 4:27 PM EST
Civil Twilight 6:51 AM EST 4:59 PM EST
Nautical Twilight 6:15 AM EST 5:35 PM EST
Astronomical Twilight 5:41 AM EST 6:09 PM EST
Moon 10:32 AM EST (12/30) 11:10 PM EST (12/30)
Length of Visible Light 10h 08m
Length of Day
9h 03m
Waxing Crescent, 35% of the Moon is Illuminated
Dec 30
Waxing Crescent
Jan 1
First Quarter
Jan 9
Full
Jan 16
Last Quarter
Jan 23
New

Hourly Weather History & Observations

Time (EST) Temp. Windchill Dew Point Humidity Pressure Visibility Wind Dir Wind Speed Gust Speed Precip Events Conditions
12:54 AM 21.0 °F - 15.1 °F 78% 30.00 in 10.0 mi Calm Calm - N/A   Overcast
1:54 AM 21.9 °F 17.2 °F 16.0 °F 78% 29.99 in 10.0 mi South 3.5 mph - N/A   Overcast
2:54 AM 21.9 °F - 17.1 °F 82% 30.00 in 10.0 mi Calm Calm - N/A   Overcast
3:54 AM 23.0 °F - 16.0 °F 74% 30.01 in 10.0 mi Calm Calm - N/A   Overcast
4:54 AM 24.1 °F - 16.0 °F 71% 29.98 in 10.0 mi Calm Calm - N/A   Overcast
5:54 AM 25.0 °F 20.7 °F 18.0 °F 75% 29.99 in 10.0 mi NW 3.5 mph - N/A   Overcast
8:54 AM 27.0 °F 23.0 °F 19.9 °F 75% 30.04 in 10.0 mi North 3.5 mph - N/A   Overcast
10:54 AM 30.9 °F 27.5 °F 23.0 °F 72% 30.01 in 10.0 mi NNW 3.5 mph - 0.00 in   Overcast
11:54 AM 33.1 °F 30.0 °F 25.0 °F 72% 29.99 in 10.0 mi NNW 3.5 mph - N/A   Overcast
12:54 PM 36.0 °F - 27.0 °F 70% 29.98 in 10.0 mi Calm Calm - N/A   Overcast
2:54 PM 37.9 °F - 28.0 °F 68% 29.99 in 10.0 mi Calm Calm - N/A   Overcast
3:54 PM 37.9 °F - 28.0 °F 68% 30.01 in 10.0 mi Calm Calm - N/A   Clear
4:54 PM 34.0 °F - 28.0 °F 79% 30.01 in 10.0 mi Calm Calm - N/A   Clear
5:54 PM 33.1 °F 28.7 °F 27.0 °F 78% 30.01 in 10.0 mi NNW 4.6 mph - N/A   Partly Cloudy
6:54 PM 32.0 °F - 28.0 °F 85% 30.01 in 10.0 mi Calm Calm - N/A   Mostly Cloudy
7:54 PM 42.1 °F 37.7 °F 30.0 °F 62% 29.99 in 10.0 mi East 6.9 mph - N/A   Overcast
8:54 PM 37.0 °F 33.3 °F 28.9 °F 73% 30.01 in 10.0 mi NE 4.6 mph - N/A   Overcast
9:54 PM 43.0 °F 39.5 °F 28.9 °F 58% 29.99 in 10.0 mi Variable 5.8 mph - N/A   Overcast
10:54 PM 43.0 °F - 28.9 °F 58% 29.98 in 10.0 mi Calm Calm - N/A   Mostly Cloudy
11:54 PM 42.1 °F 40.2 °F 28.9 °F 60% 29.96 in 10.0 mi ENE 3.5 mph - N/A   Overcast